Location: Middelsbur
(53.6609°N, 7.5020°E)
Time: 12:50:43
(UTC+00:00)

Cosmos 2184 Rocket - Pass Details

Date: 06 July 2020
Orbit: 960 x 1001 km, 82.9° (Epoch: 07 August)

Event Time Altitude Azimuth Distance (km) Brightness Sun altitude
Exits shadow 21:08:52 - 167° (SSE) 2,988 6.0 -7.5°
Reaches altitude 10° 21:09:36 10° 165° (SSE) 2,719 5.7 -7.6°
Maximum altitude 21:15:36 51° 91° (E) 1,219 4.3 -8.0°
Drops below altitude 10° 21:21:41 10° 18° (NNE) 2,765 7.0 -8.5°
Sets 21:24:17 0° 14° (NNE) 3,724 7.8 -8.7°
